Tracking 29606 objects as of 18-Sep-2024
HD Live streaming from Space Station
objects crossing your sky now

THORAD AGENA D DEB

Track THORAD AGENA D DEB now!
10-day predictions


NORAD ID: 42497
Int'l Code: 1970-025RB
Perigee: 893.9 km
Apogee: 939.1 km
Inclination: 100.0 °
Period: 103.2 minutes
Semi major axis: 7287 km
RCS: Unknown
Launch date: April 8, 1970
Source: United States (US)
Launch site: AIR FORCE WESTERN TEST RANGE (AFWTR)

Note: This is SATELLITE DEBRIS
Your satellite tracking list
Your tracking list is empty




NASA's NSSDC Master Catalog

Two Line Element Set (TLE):
1 42497U 70025RB  24262.29354890  .00006789  00000-0  50115-2 0  9990
2 42497 100.0306  74.4485 0030981  48.0607 312.3185 13.95511538 86846
Source of the keplerian elements: AFSPC